Weather History for Volk, WI

Change the Weather History Date:

Friday, April 18, 2014

  Actual Average Record
Temperature  
Mean Temperature 40 °F -  
Max Temperature 56 °F 55 °F 82 °F (2002)
Min Temperature 23 °F 37 °F 23 °F (2014)
Degree Days  
Heating Degree Days 25    
Moisture  
Dew Point 26 °F    
Average Humidity 52    
Maximum Humidity 100    
Minimum Humidity 29    
Precipitation  
Precipitation 0.00 in - - ()
Sea Level Pressure  
Sea Level Pressure 30.35 in    
Wind  
Wind Speed 4 mph (NNW)    
Max Wind Speed 12 mph    
Max Gust Speed -    
Visibility 7 miles    
Events      
Averages and records for this station are not official NWS values.
T = Trace of Precipitation, MM = Missing Value Source: NWS Daily Summary

Daily Weather History Graph

Daily Weather History Graph

Search for Another Location

Airport:

Trip Planner

Search our weather history database for the weather conditions in past years. The results will help you decide how hot, cold, wet, or windy it might be!

Date:

Astronomy

Apr. 18, 2014 Rise Set
Actual Time 6:12 AM CDT 7:48 PM CDT
Civil Twilight 5:42 AM CDT 8:18 PM CDT
Nautical Twilight 5:05 AM CDT 8:55 PM CDT
Astronomical Twilight 4:26 AM CDT 9:35 PM CDT
Moon 11:38 PM CDT (4/18) 8:30 AM CDT (4/18)
Length of Visible Light 14h 36m
Length of Day
13h 35m
Waning Gibbous, 87% of the Moon is Illuminated
Apr 18
Waning Gibbous
Apr 22
Last Quarter
Apr 29
New
May 6
First Quarter
May 14
Full

Hourly Weather History & Observations

Time (CDT) Temp. Windchill Dew Point Humidity Pressure Visibility Wind Dir Wind Speed Gust Speed Precip Events Conditions
12:58 AM 34.9 °F 29.0 °F 29.7 °F 81% 30.33 in 10.0 mi NW 6.9 mph - N/A   Overcast
1:38 AM 32.0 °F 26.4 °F 28.4 °F 87% 30.31 in 10.0 mi NW 5.8 mph - N/A   Scattered Clouds
1:58 AM 30.9 °F 25.2 °F 27.1 °F 86% 30.35 in 10.0 mi NNW 5.8 mph - N/A   Partly Cloudy
2:33 AM 28.4 °F - 26.6 °F 93% 30.31 in 10.0 mi North 2.3 mph - N/A   Mostly Cloudy
2:58 AM 29.7 °F 26.1 °F 29.5 °F 99% 30.35 in 10.0 mi NNW 3.5 mph - N/A   Mostly Cloudy
3:58 AM 32.5 °F 28.1 °F 30.2 °F 91% 30.35 in 10.0 mi NNW 4.6 mph - N/A   Overcast
4:58 AM 32.0 °F - 26.6 °F 80% 30.36 in 10.0 mi Calm Calm - N/A   Scattered Clouds
5:58 AM 23.7 °F 19.3 °F 23.5 °F 99% 30.39 in 10.0 mi NW 3.5 mph - N/A   Clear
6:58 AM 24.8 °F - 24.8 °F 100% 30.39 in 10.0 mi West 2.3 mph - N/A   Partly Cloudy
7:58 AM 33.8 °F 30.8 °F 30.2 °F 87% 30.41 in 10.0 mi West 3.5 mph - N/A   Partly Cloudy
8:58 AM 39.2 °F 35.9 °F 28.4 °F 65% 30.42 in 10.0 mi Variable 4.6 mph - N/A   Partly Cloudy
9:58 AM 41.0 °F 37.1 °F 24.8 °F 53% 30.43 in 10.0 mi Variable 5.8 mph - N/A   Partly Cloudy
10:58 AM 44.6 °F 42.2 °F 24.8 °F 46% 30.42 in 10.0 mi Variable 4.6 mph - N/A   Clear
11:58 AM 48.2 °F - 24.8 °F 40% 30.39 in 10.0 mi Calm Calm - N/A   Clear
12:58 PM 50.0 °F - 23.0 °F 35% 30.39 in 10.0 mi North 5.8 mph - N/A   Clear
1:58 PM 52.0 °F - 24.4 °F 34% 30.38 in 10.0 mi West 4.6 mph - N/A   Clear
2:58 PM 52.5 °F - 23.4 °F 32% 30.38 in 6.0 mi Variable 3.5 mph - N/A   Haze
3:23 PM 53.6 °F - 23.0 °F 30% 30.34 in 2.0 mi Variable 1.2 mph - N/A   Haze
3:28 PM 53.6 °F - 23.0 °F 30% 30.34 in 2.5 mi NW 2.3 mph - N/A   Haze
3:33 PM 53.6 °F - 23.0 °F 30% 30.34 in 4.0 mi NNW 5.8 mph - N/A   Haze
3:48 PM 55.4 °F - 23.0 °F 29% 30.33 in 2.0 mi Variable 2.3 mph - N/A   Haze
3:53 PM 55.4 °F - 23.0 °F 29% 30.33 in 2.5 mi Variable 1.2 mph - N/A   Haze
3:58 PM 55.4 °F - 23.0 °F 29% 30.35 in 3.0 mi Variable 4.6 mph - N/A   Haze
4:03 PM 55.4 °F - 23.0 °F 29% 30.32 in 2.5 mi Variable 1.2 mph - N/A   Haze
4:13 PM 55.4 °F - 24.8 °F 31% 30.32 in 2.0 mi NNW 6.9 mph - N/A   Haze
4:18 PM 57.2 °F - 24.8 °F 29% 30.32 in 1.8 mi Variable 4.6 mph - N/A   Haze
4:28 PM 55.4 °F - 24.8 °F 31% 30.32 in 2.0 mi Calm Calm - N/A   Haze
4:33 PM 53.6 °F - 23.0 °F 30% 30.32 in 3.0 mi NNW 4.6 mph - N/A   Haze
4:43 PM 55.4 °F - 24.8 °F 31% 30.31 in 3.0 mi SSW 3.5 mph - N/A   Haze
4:53 PM 55.4 °F - 24.8 °F 31% 30.31 in 2.5 mi Variable 2.3 mph - N/A   Haze
4:58 PM 55.9 °F - 24.4 °F 30% 30.34 in 2.5 mi WNW 3.5 mph - N/A   Haze
5:08 PM 55.4 °F - 24.8 °F 31% 30.31 in 3.0 mi North 1.2 mph - N/A   Haze
5:58 PM 54.5 °F - 24.4 °F 31% 30.35 in 10.0 mi Variable 6.9 mph - N/A   Clear
6:58 PM 51.4 °F - 25.0 °F 36% 30.34 in 10.0 mi East 8.1 mph - N/A   Clear
7:58 PM 45.1 °F 42.8 °F 24.1 °F 44% 30.34 in 10.0 mi ENE 4.6 mph - N/A   Clear
8:58 PM 42.3 °F 40.5 °F 24.8 °F 50% 30.35 in 10.0 mi East 3.5 mph - N/A   Clear
9:58 PM 37.9 °F 33.5 °F 28.4 °F 69% 30.35 in 10.0 mi East 5.8 mph - N/A   Clear
10:58 PM 41.7 °F 36.1 °F 29.8 °F 63% 30.34 in 10.0 mi ESE 9.2 mph - N/A   Clear
11:58 PM 40.3 °F 33.4 °F 31.1 °F 70% 30.34 in 10.0 mi East 11.5 mph - N/A   Clear